This demonstration page uses our WeatherBlox Daily Observations layout. Learn more.

Left ArrowRight Arrow

Hourly Observations for April 6, 2020

Temp ( °F °C ) Dew Point ( °F °C ) Humidity (%) Winds ( mph kmh ) Pressure ( in mb ) Visibility ( mi km ) Precip ( " mm )
12:15 am 00:15 Cloudy 59 15 50 10 72 72 WNW 10 17 30.04 1017 10 16.0934 0 0
12:35 am 00:35 Cloudy 61 16 50 10 68 68 WNW 9 15 30.04 1017 10 16.0934 0 0
12:55 am 00:55 Cloudy 61 16 50 10 68 68 WNW 7 11 30.04 1017 10 16.0934 0 0
1:15 am 01:15 Cloudy 59 15 50 10 72 72 WNW 8 13 30.04 1017 10 16.0934 0 0
1:35 am 01:35 Cloudy 59 15 50 10 72 72 WNW 8 13 30.04 1017 10 16.0934 0 0
1:55 am 01:55 Cloudy 59 15 50 10 72 72 NW 8 13 30.04 1017 10 16.0934 0 0
2:15 am 02:15 Cloudy 59 15 50 10 72 72 NW 9 15 30.04 1017 10 16.0934 0 0
2:35 am 02:35 Cloudy 59 15 50 10 72 72 NW 8 13 30.04 1017 10 16.0934 0 0
2:55 am 02:55 Cloudy 57 14 50 10 77 77 NW 8 13 30.04 1017 10 16.0934 0 0
3:15 am 03:15 Partly Cloudy 57 14 50 10 77 77 NNW 6 9 30.04 1017 10 16.0934 0 0
3:35 am 03:35 Mostly Cloudy 55 13 50 10 82 82 NW 6 9 30.04 1017 10 16.0934 0 0
3:55 am 03:55 Cloudy 55 13 50 10 82 82 Calm 30.04 1017 10 16.0934 0 0
4:15 am 04:15 Partly Cloudy 55 13 50 10 82 82 Calm 30.04 1017 10 16.0934 0 0
4:35 am 04:35 Clear 54 12 50 10 88 88 NNW 5 7 30.04 1017 10 16.0934 0 0
4:55 am 04:55 Clear 55 13 50 10 82 82 Calm 30.04 1017 10 16.0934 0 0
5:15 am 05:15 Clear 54 12 50 10 88 88 N 3 6 30.05 1018 10 16.0934 0 0
5:35 am 05:35 Clear 54 12 50 10 88 88 N 8 13 30.04 1017 10 16.0934 0 0
5:55 am 05:55 Clear 54 12 50 10 88 88 N 8 13 30.05 1018 10 16.0934 0 0
6:15 am 06:15 Clear 54 12 50 10 88 88 NNW 10 17 30.05 1018 10 16.0934 0 0
6:35 am 06:35 Mostly Cloudy 54 12 50 10 88 88 NNW 10 17 30.06 1018 10 16.0934 0 0
6:55 am 06:55 Cloudy 54 12 50 10 88 88 NNW 8 13 30.07 1018 10 16.0934 0 0
7:15 am 07:15 Cloudy 54 12 50 10 88 88 N 8 13 30.07 1018 10 16.0934 0 0
7:35 am 07:35 Partly Cloudy 54 12 48 9 82 82 N 8 13 30.08 1019 10 16.0934 0 0
7:55 am 07:55 Partly Cloudy 54 12 46 8 77 77 N 6 9 30.09 1019 10 16.0934 0 0
8:15 am 08:15 Cloudy 54 12 46 8 77 77 N 7 11 30.1 1019 10 16.0934 0 0
8:35 am 08:35 Mostly Cloudy 54 12 46 8 77 77 N 6 9 30.1 1019 10 16.0934 0 0
8:55 am 08:55 Mostly Cloudy 55 13 46 8 72 72 NNE 10 17 30.1 1019 10 16.0934 0 0
9:15 am 09:15 Partly Cloudy 55 13 46 8 72 72 NE 8 13 30.11 1020 10 16.0934 0 0
9:35 am 09:35 Partly Cloudy 55 13 46 8 72 72 NNE 9 15 30.11 1020 10 16.0934 0 0
9:55 am 09:55 Sunny 55 13 46 8 72 72 NE 6 9 30.1 1019 10 16.0934 0 0
10:15 am 10:15 Sunny 55 13 46 8 72 72 NNE 5 7 30.1 1019 10 16.0934 0 0
10:35 am 10:35 Sunny 57 14 46 8 67 67 NE 7 11 30.11 1020 10 16.0934 0 0
10:55 am 10:55 Sunny 59 15 46 8 63 63 NNE 7 11 30.12 1020 10 16.0934 0 0
11:35 am 11:35 Sunny 59 15 45 7 59 59 NNW 8 13 30.11 1020 10 16.0934 0 0
11:55 am 11:55 Sunny 61 16 43 6 52 52 N 7 11 30.11 1020 10 16.0934 0 0
12:55 pm 12:55 Sunny 63 17 39 4 42 42 NNW 8 13 30.1 1019 10 16.0934 0 0
1:15 pm 13:15 Sunny 63 17 39 4 42 42 NNW 8 13 30.09 1019 10 16.0934 0 0
1:35 pm 13:35 Sunny 64 18 36 2 34 34 NW 7 11 30.08 1019 10 16.0934 0 0
1:55 pm 13:55 Sunny 64 18 36 2 34 34 N 10 17 30.07 1018 10 16.0934 0 0
2:15 pm 14:15 Sunny 64 18 34 1 32 32 NNE 6 9 30.06 1018 10 16.0934 0 0
2:35 pm 14:35 Sunny 64 18 36 2 34 34 NNW 5 7 30.05 1018 10 16.0934 0 0
2:55 pm 14:55 Sunny 64 18 34 1 32 32 Calm 30.05 1018 10 16.0934 0 0
3:15 pm 15:15 Sunny 66 19 34 1 30 30 NNE 9 15 30.04 1017 10 16.0934 0 0
3:35 pm 15:35 Sunny 66 19 34 1 30 30 N 6 9 30.03 1017 10 16.0934 0 0
3:55 pm 15:55 Sunny 68 20 32 0 26 26 N 12 19 30.02 1017 10 16.0934 0 0
4:15 pm 16:15 Sunny 68 20 32 0 26 26 N 8 13 30.01 1016 10 16.0934 0 0
4:35 pm 16:35 Sunny 68 20 34 1 28 28 NNW 5 7 30.01 1016 10 16.0934 0 0
4:55 pm 16:55 Sunny 68 20 32 0 26 26 NNE 9 15 30.01 1016 10 16.0934 0 0
5:15 pm 17:15 Sunny 68 20 32 0 26 26 N 8 13 30 1016 10 16.0934 0 0
5:35 pm 17:35 Sunny 68 20 32 0 26 26 N 7 11 30 1016 10 16.0934 0 0
5:55 pm 17:55 Sunny 66 19 32 0 28 28 NE 7 11 30 1016 10 16.0934 0 0
6:15 pm 18:15 Sunny 66 19 32 0 28 28 E 5 7 30 1016 10 16.0934 0 0
6:35 pm 18:35 Sunny 66 19 32 0 28 28 ENE 3 6 30 1016 10 16.0934 0 0
6:55 pm 18:55 Sunny 66 19 32 0 28 28 NE 6 9 30 1016 10 16.0934 0 0
7:15 pm 19:15 Sunny 64 18 30 -1 28 28 NE 6 9 30 1016 10 16.0934 0 0
7:35 pm 19:35 Sunny 64 18 32 0 30 30 NE 5 7 29.99 1016 10 16.0934 0 0
7:55 pm 19:55 Clear 63 17 32 0 32 32 E 3 6 30 1016 10 16.0934 0 0
8:15 pm 20:15 Clear 61 16 32 0 34 34 E 5 7 30 1016 10 16.0934 0 0
8:35 pm 20:35 Clear 61 16 32 0 34 34 ENE 3 6 30 1016 10 16.0934 0 0
8:55 pm 20:55 Clear 61 16 32 0 34 34 ENE 3 6 30.01 1016 10 16.0934 0 0
9:15 pm 21:15 Clear 54 12 36 2 51 51 Calm 30.02 1017 10 16.0934 0 0
9:35 pm 21:35 Clear 54 12 36 2 51 51 Calm 30.02 1017 10 16.0934 0 0
9:55 pm 21:55 Clear 52 11 36 2 54 54 Calm 30.03 1017 10 16.0934 0 0
10:15 pm 22:15 Clear 52 11 34 1 50 50 Calm 30.03 1017 10 16.0934 0 0
10:35 pm 22:35 Clear 50 10 36 2 58 58 W 5 7 30.04 1017 10 16.0934 0 0
10:55 pm 22:55 Clear 50 10 37 3 62 62 W 5 7 30.04 1017 10 16.0934 0 0
11:15 pm 23:15 Clear 50 10 39 4 67 67 W 3 6 30.04 1017 10 16.0934 0 0
11:35 pm 23:35 Clear 46 8 37 3 71 71 W 3 6 30.03 1017 10 16.0934 0 0
11:55 pm 23:55 Clear 46 8 41 5 82 82 WNW 3 6 30.03 1017 10 16.0934 0 0

Powered by AerisWeather